FW5349 Weather Reports


time (UTC)temp
C
wind
direction
speed
KPH
gust
KPH
rain 1hr
cm
rain 24hr
cm
rain mn
cm
humidity
%
barometer
mb
20260508141616 14 280 4.8 11.3 0.00 0.05 0.03 59 1002.7
20260508140054 13 288 4.8 11.3 0.00 0.05 0.03 62 1002.9
20260508134602 13 352 1.6 11.3 0.00 0.05 0.03 63 1003.0
20260508133050 13 272 0.0 8.0 0.00 0.05 0.03 70 1002.9
20260508131547 13 256 1.6 8.0 0.00 0.05 0.03 69 1003.0
20260508130043 12 304 3.2 6.4 0.00 0.05 0.03 74 1002.9
20260508124548 11 319 1.6 8.0 0.00 0.05 0.03 75 1002.9
20260508123048 11 282 4.8 12.9 0.00 0.05 0.03 72 1003.1
20260508121540 11 16 8.0 14.5 0.00 0.05 0.03 73 1003.1
20260508120036 11 314 9.7 16.1 0.00 0.05 0.03 75 1002.9
20260508114535 9 311 11.3 16.1 0.00 0.05 0.03 78 1002.9
20260508113044 8 307 3.2 12.9 0.00 0.05 0.03 82 1002.9
20260508111526 7 321 6.4 12.9 0.00 0.05 0.03 85 1003.0
20260508110023 7 342 4.8 12.9 0.00 0.05 0.03 88 1002.9
20260508104523 6 293 4.8 9.7 0.00 0.05 0.03 90 1002.8
20260508103024 6 311 3.2 8.0 0.00 0.05 0.03 91 1002.7
20260508101522 6 318 3.2 6.4 0.00 0.05 0.03 91 1002.7
20260508100018 5 304 3.2 8.0 0.00 0.05 0.03 91 1002.6
20260508094517 5 335 1.6 3.2 0.00 0.05 0.03 90 1002.6
20260508093017 5 335 1.6 6.4 0.00 0.05 0.03 90 1002.5
20260508091521 5 306 1.6 4.8 0.00 0.05 0.03 90 1002.4
20260508090022 5 306 1.6 4.8 0.00 0.05 0.03 90 1002.6
20260508084513 5 306 1.6 4.8 0.00 0.05 0.03 91 1002.4
20260508083011 5 306 1.6 4.8 0.03 0.05 0.03 90 1002.3
20260508081511 5 306 0.0 3.2 0.03 0.05 0.03 90 1002.6
20260508080010 5 306 0.0 3.2 0.03 0.05 0.03 90 1002.4
20260508074511 5 306 0.0 3.2 0.03 0.05 0.03 90 1002.4
20260508073010 5 306 0.0 4.8 0.00 0.05 0.00 90 1002.3
20260508071521 5 289 1.6 4.8 0.00 0.05 0.00 90 1002.4
20260508070008 5 313 3.2 6.4 0.00 0.05 0.00 90 1002.1
20260508064605 5 324 0.0 0.0 0.00 0.05 0.00 89 1002.7
20260508063003 5 324 0.0 0.0 0.00 0.05 0.00 89 1002.3
20260508061604 6 324 0.0 0.0 0.00 0.05 0.00 89 1002.4
20260508060105 6 324 0.0 0.0 0.00 0.05 0.00 89 1002.6
20260508054557 6 324 0.0 0.0 0.00 0.05 0.00 89 1002.5
20260508053055 6 324 0.0 0.0 0.00 0.05 0.00 89 1002.5
20260508051553 6 324 0.0 0.0 0.00 0.05 0.00 89 1002.8
20260508050051 7 324 0.0 0.0 0.00 0.05 0.00 89 1002.8
20260508044550 7 324 0.0 0.0 0.00 0.05 0.00 89 1002.9
20260508043048 7 324 0.0 0.0 0.00 0.05 0.00 89 1003.0
20260508041548 7 324 0.0 0.0 0.00 0.05 0.00 89 1003.2
20260508040044 7 324 0.0 0.0 0.00 0.05 0.00 89 1003.2
20260508034543 8 324 0.0 1.6 0.00 0.05 0.00 89 1002.9
20260508033041 8 324 0.0 3.2 0.00 0.05 0.00 89 1003.0
20260508031538 8 324 1.6 3.2 0.00 0.05 0.00 89 1003.4
20260508030042 8 309 1.6 4.8 0.00 0.05 0.00 89 1003.3
20260508024539 9 295 3.2 6.4 0.00 0.05 0.05 89 1003.3
20260508023035 9 303 1.6 6.4 0.00 0.05 0.05 90 1003.3
20260508021544 10 291 4.8 8.0 0.00 0.05 0.05 90 1003.3
20260508020034 10 325 1.6 3.2 0.00 0.05 0.05 90 1003.3
20260508014534 10 325 0.0 3.2 0.00 0.05 0.05 90 1003.5
20260508013040 10 325 0.0 3.2 0.00 0.05 0.05 89 1003.4
20260508011537 10 325 0.0 3.2 0.00 0.05 0.05 89 1003.4
20260508010034 10 325 0.0 3.2 0.00 0.05 0.05 89 1003.2
20260508004538 10 325 0.0 3.2 0.00 0.05 0.05 89 1003.0
20260508003031 11 325 0.0 4.8 0.03 0.05 0.05 89 1003.0
20260508001533 11 325 0.0 1.6 0.03 0.05 0.05 89 1002.8
20260508000032 11 325 0.0 6.4 0.03 0.05 0.05 89 1002.4
20260507234530 11 335 3.2 9.7 0.00 0.05 0.03 89 1002.6
20260507233036 11 270 0.0 6.4 0.00 0.05 0.03 89 1002.5
20260507231528 11 270 3.2 11.3 0.00 0.05 0.03 89 1002.5
20260507230026 11 251 3.2 6.4 0.00 0.05 0.03 89 1002.4
20260507224524 11 255 3.2 6.4 0.00 0.05 0.03 89 1002.3
20260507223024 11 250 0.0 4.8 0.00 0.05 0.03 89 1002.2
20260507221523 11 234 0.0 6.4 0.00 0.05 0.03 89 1002.3
20260507220023 11 226 1.6 8.0 0.00 0.05 0.03 89 1002.6
20260507214527 11 200 1.6 6.4 0.00 0.05 0.03 89 1002.5
20260507213024 11 206 3.2 8.0 0.00 0.05 0.03 90 1002.3
20260507211520 11 187 0.0 11.3 0.00 0.05 0.03 90 1002.4
20260507210033 11 223 1.6 11.3 0.00 0.05 0.03 90 1002.4
20260507204518 11 254 3.2 12.9 0.00 0.05 0.03 91 1002.5
20260507203017 10 222 3.2 9.7 0.00 0.05 0.03 91 1002.4
20260507201516 10 239 1.6 11.3 0.00 0.05 0.03 91 1002.4
20260507200018 10 223 3.2 9.7 0.00 0.05 0.03 91 1002.5
20260507194517 10 178 1.6 11.3 0.00 0.05 0.03 91 1002.7
20260507193012 10 237 4.8 12.9 0.00 0.05 0.03 91 1002.9
20260507191511 10 251 1.6 11.3 0.00 0.05 0.03 91 1002.9
20260507190011 10 190 1.6 8.0 0.00 0.05 0.03 91 1002.7
20260507184516 9 182 0.0 9.7 0.00 0.05 0.03 91 1002.7
20260507183009 9 189 1.6 9.7 0.00 0.05 0.03 91 1002.7
20260507181507 9 158 4.8 16.1 0.03 0.05 0.03 91 1002.5
20260507180006 8 132 3.2 19.3 0.03 0.05 0.03 90 1001.7
20260507174502 8 101 8.0 17.7 0.03 0.05 0.03 91 1002.0
20260507173058 8 105 6.4 14.5 0.03 0.05 0.03 90 1003.0
20260507171603 8 141 4.8 16.1 0.00 0.03 0.00 91 1004.1
20260507170057 9 134 4.8 12.9 0.00 0.03 0.00 91 1003.5
20260507164605 8 176 0.0 8.0 0.00 0.03 0.00 91 1004.0
20260507163056 8 144 1.6 12.9 0.00 0.03 0.00 91 1003.6
20260507161554 8 140 1.6 11.3 0.00 0.03 0.00 91 1003.3
20260507160051 9 156 4.8 11.3 0.00 0.03 0.00 90 1005.2
20260507154552 9 264 0.0 4.8 0.00 0.03 0.00 91 1004.4
20260507153048 10 227 3.2 12.9 0.00 0.03 0.00 91 1004.8
20260507151547 10 166 9.7 25.7 0.00 0.03 0.00 90 1005.1
20260507150046 10 248 6.4 27.4 0.00 0.03 0.00 90 1005.3
20260507144544 10 200 6.4 29.0 0.00 0.03 0.00 91 1005.2
20260507143042 10 200 11.3 25.7 0.00 0.03 0.00 91 1005.6